Location: Killam
(52.7910°N, 111.8608°W)
Time: 20:19:57
(UTC+00:00)

Vanguard 2 Rocket - Pass Details

Date: 23 February 2026
Orbit: 553 x 3286 km, 32.9° (Epoch: 8 March)

Event Time Altitude Azimuth Distance (km) Brightness Sun altitude
Rises 18:39:41 0° 229° (SW) 7,117 11.8 26.2°
Reaches altitude 10° 18:45:05 10° 221° (SW) 6,206 11.7 26.5°
Maximum altitude 19:01:26 34° 167° (SSE) 4,288 13.1 27.0°
Drops below altitude 10° 19:14:52 10° 111° (ESE) 5,124 11.2 27.4°
Sets 19:18:45 0° 102° (ESE) 5,786 11.2 27.4°
